FW7504 Weather Reports


time (UTC)temp
C
wind
direction
speed
KPH
gust
KPH
rain 1hr
cm
rain 24hr
cm
rain mn
cm
humidity
%
barometer
mb
20260901001054 31 0 0.0 0.0 0.00 0.00 0.00 61 1019.4
20260901000554 31 0 0.0 0.0 0.00 0.00 0.00 59 1019.4
20260901000107 31 0 0.0 0.0 0.00 0.00 0.00 59 1019.4
20260831235553 31 0 0.0 0.0 0.00 0.00 0.00 58 1019.4
20260831235053 31 0 0.0 1.6 0.00 0.00 0.00 59 1019.5
20260831234604 32 0 0.0 1.6 0.00 0.00 0.00 58 1019.4
20260831234053 32 0 0.0 1.6 0.00 0.00 0.00 56 1019.4
20260831233553 32 0 0.0 0.0 0.00 0.00 0.00 55 1019.4
20260831233106 32 0 0.0 1.6 0.00 0.00 0.00 55 1019.5
20260831232553 32 0 0.0 4.8 0.00 0.00 0.00 53 1019.4
20260831232056 32 0 0.0 4.8 0.00 0.00 0.00 52 1019.6
20260831231610 32 0 1.6 4.8 0.00 0.00 0.00 51 1019.5
20260831231053 32 81 1.6 4.8 0.00 0.00 0.00 49 1019.4
20260831230556 32 52 0.0 4.8 0.00 0.00 0.00 49 1019.5
20260831230117 32 78 1.6 4.8 0.00 0.00 0.00 48 1019.6
20260831225556 32 0 0.0 6.4 0.00 0.00 0.00 49 1019.6
20260831225053 32 0 3.2 6.4 0.00 0.00 0.00 48 1019.5
20260831224602 33 90 0.0 6.4 0.00 0.00 0.00 48 1019.6
20260831224057 33 75 0.0 6.4 0.00 0.00 0.00 49 1019.6
20260831223556 33 0 0.0 0.0 0.00 0.00 0.00 50 1019.6
20260831223114 33 0 0.0 3.2 0.00 0.00 0.00 52 1019.5
20260831222553 33 0 0.0 3.2 0.00 0.00 0.00 51 1019.6
20260831222052 33 0 0.0 3.2 0.00 0.00 0.00 51 1019.7
20260831221608 34 0 1.6 3.2 0.00 0.00 0.00 52 1019.6
20260831221053 34 0 0.0 4.8 0.00 0.00 0.00 52 1019.6
20260831220554 34 0 0.0 4.8 0.00 0.00 0.00 53 1019.6
20260831220112 34 0 0.0 3.2 0.00 0.00 0.00 51 1019.6
20260831215555 33 49 0.0 3.2 0.00 0.00 0.00 52 1019.6
20260831215053 33 0 0.0 4.8 0.00 0.00 0.00 50 1019.7
20260831214611 33 0 1.6 6.4 0.00 0.00 0.00 48 1019.7
20260831214053 33 0 1.6 6.4 0.00 0.00 0.00 48 1019.7
20260831213553 33 0 0.0 6.4 0.00 0.00 0.00 49 1019.7
20260831213112 33 0 1.6 4.8 0.00 0.00 0.00 51 1019.9
20260831212553 33 0 0.0 9.7 0.00 0.00 0.00 50 1019.9
20260831212058 33 74 1.6 11.3 0.00 0.00 0.00 48 1019.9
20260831211605 32 97 3.2 11.3 0.00 0.00 0.00 49 1020.0
20260831211052 32 54 0.0 11.3 0.00 0.00 0.00 50 1020.0
20260831210553 32 57 1.6 11.3 0.00 0.00 0.00 50 1020.0
20260831210106 33 22 4.8 11.3 0.00 0.00 0.00 50 1020.0
20260831205553 33 0 1.6 9.7 0.00 0.00 0.00 49 1019.9
20260831205053 33 10 1.6 9.7 0.00 0.00 0.00 51 1020.0
20260831204605 32 0 0.0 6.4 0.00 0.00 0.00 50 1020.1
20260831204056 32 92 1.6 14.5 0.00 0.00 0.00 51 1020.1
20260831203556 33 90 0.0 14.5 0.00 0.00 0.00 50 1020.2
20260831203108 33 115 3.2 11.3 0.00 0.00 0.00 51 1020.2
20260831202553 32 9 1.6 9.7 0.00 0.00 0.00 52 1020.4
20260831202053 32 109 3.2 9.7 0.00 0.00 0.00 52 1020.4
20260831201605 32 360 4.8 8.0 0.00 0.00 0.00 52 1020.5
20260831201055 32 0 0.0 3.2 0.00 0.00 0.00 53 1020.5
20260831200553 32 255 1.6 4.8 0.00 0.00 0.00 53 1020.6
20260831200111 32 0 0.0 11.3 0.00 0.00 0.00 54 1020.7
20260831195557 32 107 3.2 11.3 0.00 0.00 0.00 52 1020.8
20260831195053 32 101 3.2 9.7 0.00 0.00 0.00 52 1020.8
20260831194614 32 81 4.8 9.7 0.00 0.00 0.00 53 1020.9
20260831194053 32 107 4.8 9.7 0.00 0.00 0.00 55 1020.9
20260831193554 32 37 0.0 3.2 0.00 0.00 0.00 55 1020.9
20260831193101 32 0 0.0 9.7 0.00 0.00 0.00 54 1021.0
20260831192553 32 0 0.0 11.3 0.00 0.00 0.00 55 1021.0
20260831192052 32 0 4.8 11.3 0.00 0.00 0.00 55 1021.1
20260831191605 32 107 1.6 9.7 0.00 0.00 0.00 56 1021.2
20260831191056 32 0 0.0 11.3 0.00 0.00 0.00 57 1021.1
20260831190555 32 0 1.6 11.3 0.00 0.00 0.00 56 1021.2
20260831190115 32 78 0.0 11.3 0.00 0.00 0.00 53 1021.3
20260831185553 32 5 3.2 6.4 0.00 0.00 0.00 54 1021.4
20260831185052 32 342 1.6 9.7 0.00 0.00 0.00 53 1021.3
20260831184605 32 115 1.6 9.7 0.00 0.00 0.00 56 1021.5
20260831184052 32 95 0.0 8.0 0.00 0.00 0.00 58 1021.5
20260831183552 32 32 0.0 6.4 0.00 0.00 0.00 58 1021.5
20260831183115 32 140 3.2 6.4 0.00 0.00 0.00 58 1021.6
20260831182554 32 0 1.6 8.0 0.00 0.00 0.00 58 1021.6
20260831182053 32 69 0.0 11.3 0.00 0.00 0.00 58 1021.6
20260831181611 32 9 1.6 11.3 0.00 0.00 0.00 58 1021.7
20260831181053 32 113 4.8 11.3 0.00 0.00 0.00 58 1021.8
20260831180553 31 64 1.6 11.3 0.00 0.00 0.00 57 1021.9
20260831180119 31 0 4.8 11.3 0.00 0.00 0.00 57 1022.0
20260831175553 31 90 0.0 4.8 0.00 0.00 0.00 59 1022.0
20260831175053 31 0 1.6 4.8 0.00 0.00 0.00 60 1022.0
20260831174605 31 98 0.0 9.7 0.00 0.00 0.00 59 1022.0
20260831174053 31 0 1.6 9.7 0.00 0.00 0.00 58 1022.0
20260831173553 31 84 0.0 6.4 0.00 0.00 0.00 60 1022.1
20260831173104 31 85 1.6 9.7 0.00 0.00 0.00 62 1022.2
20260831172553 31 19 0.0 9.7 0.00 0.00 0.00 64 1022.2
20260831172053 31 107 0.0 4.8 0.00 0.00 0.00 64 1022.2
20260831171604 31 312 0.0 4.8 0.00 0.00 0.00 65 1022.2
20260831171053 30 0 1.6 4.8 0.00 0.00 0.00 65 1022.2
20260831170553 30 0 0.0 8.0 0.00 0.00 0.00 67 1022.3
20260831165553 30 242 1.6 6.4 0.00 0.00 0.00 66 1022.4
20260831165053 30 344 1.6 6.4 0.00 0.00 0.00 67 1022.6
20260831164601 30 228 1.6 4.8 0.00 0.00 0.00 68 1022.7
20260831164052 30 0 0.0 4.8 0.00 0.00 0.00 68 1022.8
20260831163553 30 0 1.6 4.8 0.00 0.00 0.00 69 1022.7
20260831163105 30 294 0.0 4.8 0.00 0.00 0.00 70 1022.9
20260831162554 30 0 1.6 8.0 0.00 0.00 0.00 68 1022.9
20260831162055 30 0 3.2 8.0 0.00 0.00 0.00 70 1023.0
20260831161606 29 83 0.0 4.8 0.00 0.00 0.00 71 1023.0
20260831161053 29 0 0.0 3.2 0.00 0.00 0.00 72 1022.9
20260831160554 29 0 0.0 6.4 0.00 0.00 0.00 70 1023.0
20260831160108 29 0 1.6 6.4 0.00 0.00 0.00 72 1023.0
20260831155553 29 225 0.0 6.4 0.00 0.00 0.00 73 1023.0
20260831155055 29 213 1.6 6.4 0.00 0.00 0.00 72 1023.2
20260831154635 29 269 0.0 4.8 0.00 0.00 0.00 72 1023.1
20260831154055 29 271 0.0 6.4 0.00 0.00 0.00 72 1023.1
20260831153552 29 244 1.6 6.4 0.00 0.00 0.00 71 1023.2
20260831153110 29 219 0.0 4.8 0.00 0.00 0.00 71 1023.1
20260831152554 29 0 0.0 6.4 0.00 0.00 0.00 72 1023.1
20260831152053 29 0 0.0 6.4 0.00 0.00 0.00 72 1023.1
20260831151605 29 108 1.6 4.8 0.00 0.00 0.00 72 1023.1
20260831151053 28 0 0.0 4.8 0.00 0.00 0.00 74 1023.2
20260831150552 28 0 0.0 3.2 0.00 0.00 0.00 74 1023.2
20260831150113 28 0 0.0 8.0 0.00 0.00 0.00 75 1023.4
20260831145552 28 0 1.6 8.0 0.00 0.00 0.00 74 1023.3
20260831145056 28 0 0.0 3.2 0.00 0.00 0.00 76 1023.5
20260831144608 27 247 0.0 3.2 0.00 0.00 0.00 77 1023.5
20260831144053 27 0 0.0 3.2 0.00 0.00 0.00 76 1023.3
20260831143553 27 247 0.0 3.2 0.00 0.00 0.00 77 1023.4
20260831143108 27 0 0.0 3.2 0.00 0.00 0.00 76 1023.3
20260831142554 27 0 0.0 3.2 0.00 0.00 0.00 77 1023.2
20260831142055 27 0 0.0 3.2 0.00 0.00 0.00 78 1023.3
20260831141611 27 0 0.0 1.6 0.00 0.00 0.00 79 1023.2
20260831141055 26 0 0.0 1.6 0.00 0.00 0.00 80 1023.1
20260831140552 26 0 0.0 1.6 0.00 0.00 0.00 80 1023.1
20260831140101 26 0 0.0 3.2 0.00 0.00 0.00 81 1023.2
20260831135557 25 0 0.0 3.2 0.00 0.00 0.00 82 1023.1
20260831135053 25 293 0.0 3.2 0.00 0.00 0.00 82 1023.1
20260831134606 25 0 0.0 1.6 0.00 0.00 0.00 84 1023.1
20260831134053 25 0 0.0 1.6 0.00 0.00 0.00 83 1023.1
20260831133554 25 0 0.0 0.0 0.00 0.00 0.00 83 1023.1
20260831133108 24 0 0.0 0.0 0.00 0.00 0.00 84 1023.2
20260831132553 24 0 0.0 0.0 0.00 0.00 0.00 85 1023.2
20260831132053 24 0 0.0 0.0 0.00 0.00 0.00 86 1023.0
20260831131605 23 0 0.0 0.0 0.00 0.00 0.00 87 1023.0
20260831131052 23 0 0.0 0.0 0.00 0.00 0.00 88 1022.9
20260831130553 23 0 0.0 0.0 0.00 0.00 0.00 89 1023.0
20260831130104 23 0 0.0 0.0 0.00 0.00 0.00 90 1022.9
20260831125553 23 0 0.0 0.0 0.00 0.00 0.00 91 1022.8
20260831125052 22 0 0.0 0.0 0.00 0.00 0.00 91 1022.8
20260831124604 22 0 0.0 0.0 0.00 0.00 0.00 91 1022.8
20260831124052 22 0 0.0 1.6 0.00 0.00 0.00 91 1022.8
20260831123552 22 0 0.0 1.6 0.00 0.00 0.00 92 1022.8
20260831123104 22 0 0.0 0.0 0.00 0.00 0.00 91 1022.7
20260831122557 22 0 0.0 3.2 0.00 0.00 0.00 92 1022.7
20260831122052 22 0 0.0 4.8 0.00 0.00 0.00 92 1022.6
20260831121601 22 360 0.0 4.8 0.00 0.00 0.00 92 1022.6
20260831121057 21 360 0.0 3.2 0.00 0.00 0.00 92 1022.5
20260831120553 21 0 0.0 0.0 0.00 0.00 0.00 92 1022.5
20260831120129 21 0 0.0 0.0 0.00 0.00 0.00 92 1022.4
20260831115553 21 0 0.0 0.0 0.00 0.00 0.00 92 1022.5
20260831115056 21 0 0.0 0.0 0.00 0.00 0.00 92 1022.4
20260831114612 21 0 0.0 0.0 0.00 0.00 0.00 91 1022.5
20260831114053 21 0 0.0 0.0 0.00 0.00 0.00 91 1022.4
20260831113553 21 0 0.0 0.0 0.00 0.00 0.00 91 1022.3
20260831113107 21 0 0.0 0.0 0.00 0.00 0.00 92 1022.2
20260831112555 21 0 0.0 0.0 0.00 0.00 0.00 91 1022.2
20260831112052 21 0 0.0 0.0 0.00 0.00 0.00 91 1022.2
20260831111614 21 0 0.0 0.0 0.00 0.00 0.00 91 1022.2
20260831111052 21 0 0.0 0.0 0.00 0.00 0.00 91 1022.1
20260831110552 21 0 0.0 0.0 0.00 0.00 0.00 91 1022.0
20260831110104 21 0 0.0 0.0 0.00 0.00 0.00 91 1022.0
20260831105553 21 0 0.0 0.0 0.00 0.00 0.00 91 1021.8
20260831105053 21 0 0.0 0.0 0.00 0.00 0.00 91 1021.8
20260831104605 21 0 0.0 0.0 0.00 0.00 0.00 91 1021.7
20260831104053 21 0 0.0 0.0 0.00 0.00 0.00 91 1021.8
20260831103552 21 0 0.0 0.0 0.00 0.00 0.00 91 1021.6
20260831103107 21 0 0.0 0.0 0.00 0.00 0.00 91 1021.6
20260831102553 21 0 0.0 0.0 0.00 0.00 0.00 90 1021.7
20260831102053 22 0 0.0 0.0 0.00 0.00 0.00 91 1021.6
20260831101605 22 0 0.0 0.0 0.00 0.00 0.00 90 1021.6
20260831101053 22 0 0.0 0.0 0.00 0.00 0.00 90 1021.5
20260831100556 22 0 0.0 0.0 0.00 0.00 0.00 90 1021.4
20260831100114 22 0 0.0 0.0 0.00 0.00 0.00 90 1021.3
20260831095557 22 0 0.0 0.0 0.00 0.00 0.00 90 1021.4
20260831095053 22 0 0.0 0.0 0.00 0.00 0.00 90 1021.3
20260831094605 22 0 0.0 0.0 0.00 0.00 0.00 90 1021.4
20260831094054 22 0 0.0 0.0 0.00 0.00 0.00 90 1021.3
20260831093554 22 0 0.0 0.0 0.00 0.00 0.00 90 1021.1
20260831093106 22 0 0.0 0.0 0.00 0.00 0.00 90 1021.3
20260831092552 22 0 0.0 0.0 0.00 0.00 0.00 90 1021.1
20260831092053 22 0 0.0 0.0 0.00 0.00 0.00 90 1021.1
20260831091605 22 0 0.0 0.0 0.00 0.00 0.00 90 1021.0
20260831091052 22 0 0.0 0.0 0.00 0.00 0.00 90 1021.0
20260831090553 22 0 0.0 0.0 0.00 0.00 0.00 89 1020.9
20260831090109 22 0 0.0 0.0 0.00 0.00 0.00 89 1021.1
20260831085557 22 0 0.0 0.0 0.00 0.00 0.00 89 1021.0
20260831085052 22 0 0.0 0.0 0.00 0.00 0.00 89 1021.0
20260831084609 22 0 0.0 0.0 0.00 0.00 0.00 89 1020.8
20260831084052 22 0 0.0 0.0 0.00 0.00 0.00 89 1021.0
20260831083553 22 0 0.0 0.0 0.00 0.00 0.00 89 1021.0
20260831083106 22 0 0.0 0.0 0.00 0.00 0.00 89 1021.0
20260831082556 22 0 0.0 0.0 0.00 0.00 0.00 89 1020.9
20260831082053 22 0 0.0 0.0 0.00 0.00 0.00 89 1021.0
20260831081605 22 0 0.0 0.0 0.00 0.00 0.00 88 1020.9
20260831081052 22 0 0.0 0.0 0.00 0.00 0.00 88 1021.0
20260831080552 22 0 0.0 0.0 0.00 0.00 0.00 88 1021.0
20260831080138 22 0 0.0 0.0 0.00 0.00 0.00 87 1021.0
20260831075552 22 0 0.0 0.0 0.00 0.00 0.00 88 1021.0
20260831075055 23 0 0.0 0.0 0.00 0.00 0.00 88 1020.9
20260831074607 23 0 0.0 0.0 0.00 0.00 0.00 87 1020.9
20260831074053 23 0 0.0 0.0 0.00 0.00 0.00 87 1020.8
20260831073555 23 0 0.0 0.0 0.00 0.00 0.00 87 1020.9
20260831073117 23 0 0.0 0.0 0.00 0.00 0.00 87 1020.9
20260831072552 23 0 0.0 0.0 0.00 0.00 0.00 87 1020.9
20260831072053 23 0 0.0 0.0 0.00 0.00 0.00 87 1020.9
20260831071602 23 0 0.0 0.0 0.00 0.00 0.00 87 1020.8
20260831071053 23 0 0.0 0.0 0.00 0.00 0.00 86 1021.0
20260831070552 23 0 0.0 0.0 0.00 0.00 0.00 87 1020.9
20260831065550 23 0 0.0 0.0 0.00 0.00 0.00 86 1021.0
20260831065052 23 0 0.0 0.0 0.00 0.00 0.00 86 1021.0
20260831064611 23 0 0.0 0.0 0.00 0.00 0.00 86 1021.1
20260831064052 23 0 0.0 0.0 0.00 0.00 0.00 85 1021.0
20260831063555 23 0 0.0 0.0 0.00 0.00 0.00 85 1021.0
20260831063107 23 0 0.0 0.0 0.00 0.00 0.00 85 1021.1
20260831062553 23 0 0.0 0.0 0.00 0.00 0.00 85 1021.0
20260831062053 23 0 0.0 0.0 0.00 0.00 0.00 85 1021.0
20260831061608 23 0 0.0 0.0 0.00 0.00 0.00 85 1021.0
20260831061054 23 0 0.0 0.0 0.00 0.00 0.00 85 1021.1
20260831060552 24 0 0.0 0.0 0.00 0.00 0.00 85 1021.0
20260831060109 24 0 0.0 0.0 0.00 0.00 0.00 85 1021.0
20260831055552 24 0 0.0 0.0 0.00 0.00 0.00 85 1021.0
20260831055053 24 0 0.0 0.0 0.00 0.00 0.00 85 1021.1
20260831054601 24 0 0.0 0.0 0.00 0.00 0.00 84 1021.0
20260831054052 24 0 0.0 0.0 0.00 0.00 0.00 84 1021.0
20260831053552 24 0 0.0 0.0 0.00 0.00 0.00 84 1021.1
20260831053110 24 0 0.0 0.0 0.00 0.00 0.00 84 1021.0
20260831052552 25 0 0.0 0.0 0.00 0.00 0.00 84 1021.0
20260831052054 25 0 0.0 0.0 0.00 0.00 0.00 84 1021.1
20260831051604 25 0 0.0 0.0 0.00 0.00 0.00 84 1021.1
20260831051052 25 0 0.0 0.0 0.00 0.00 0.00 84 1021.1
20260831050556 25 0 0.0 0.0 0.00 0.00 0.00 83 1021.0
20260831050117 25 0 0.0 0.0 0.00 0.00 0.00 83 1021.0
20260831045555 25 0 0.0 3.2 0.00 0.00 0.00 83 1021.0
20260831045052 25 0 0.0 3.2 0.00 0.00 0.00 83 1021.0
20260831044606 25 360 0.0 3.2 0.00 0.00 0.00 83 1021.0
20260831044052 25 0 0.0 0.0 0.00 0.00 0.00 82 1021.0
20260831043553 25 0 0.0 0.0 0.00 0.00 0.00 82 1021.2
20260831043106 25 0 0.0 0.0 0.00 0.00 0.00 81 1021.0
20260831042552 25 0 0.0 0.0 0.00 0.00 0.00 81 1021.0
20260831042052 25 0 0.0 0.0 0.00 0.00 0.00 81 1021.0
20260831041611 25 0 0.0 0.0 0.00 0.00 0.00 81 1021.1
20260831041054 25 0 0.0 0.0 0.00 0.00 0.00 81 1021.1
20260831040552 25 0 0.0 0.0 0.00 0.00 0.00 81 1021.0
20260831040110 25 0 0.0 1.6 0.00 0.00 0.00 80 1021.0
20260831035555 25 0 0.0 1.6 0.00 0.00 0.00 80 1021.0
20260831035051 25 0 0.0 0.0 0.00 0.00 0.00 80 1021.1
20260831034609 25 0 0.0 0.0 0.00 0.00 0.00 80 1021.0
20260831034052 25 0 0.0 0.0 0.00 0.00 0.00 80 1021.1
20260831033554 25 0 0.0 1.6 0.00 0.00 0.00 80 1021.1
20260831033111 26 0 0.0 1.6 0.00 0.00 0.00 79 1021.0
20260831032552 26 0 0.0 0.0 0.00 0.00 0.00 79 1021.1
20260831032052 26 0 0.0 0.0 0.00 0.00 0.00 79 1021.0
20260831031605 26 0 0.0 0.0 0.00 0.00 0.00 78 1020.9
20260831031051 26 0 0.0 0.0 0.00 0.00 0.00 78 1021.1
20260831030553 26 0 0.0 0.0 0.00 0.00 0.00 78 1021.2
20260831030103 26 0 0.0 0.0 0.00 0.00 0.00 78 1021.2
20260831025549 26 0 0.0 0.0 0.00 0.00 0.00 77 1021.1
20260831025053 26 0 0.0 0.0 0.00 0.00 0.00 77 1021.2
20260831024609 26 0 0.0 0.0 0.00 0.00 0.00 76 1021.2
20260831024051 26 0 0.0 0.0 0.00 0.00 0.00 76 1021.0
20260831023552 26 0 0.0 0.0 0.00 0.00 0.00 76 1021.0
20260831023108 26 0 0.0 1.6 0.00 0.00 0.00 75 1021.0
20260831022555 26 0 0.0 1.6 0.00 0.00 0.00 75 1021.2
20260831022055 27 0 0.0 1.6 0.00 0.00 0.00 75 1021.0
20260831021606 27 0 0.0 1.6 0.00 0.00 0.00 75 1020.9
20260831021056 27 0 0.0 1.6 0.00 0.00 0.00 75 1020.9
20260831020553 27 0 0.0 1.6 0.00 0.00 0.00 75 1020.9
20260831020108 27 0 0.0 0.0 0.00 0.00 0.00 74 1020.8
20260831015552 27 0 0.0 0.0 0.00 0.00 0.00 75 1020.7
20260831015052 27 0 0.0 0.0 0.00 0.00 0.00 74 1020.7
20260831014603 27 0 0.0 0.0 0.00 0.00 0.00 73 1020.6
20260831014052 27 0 0.0 1.6 0.00 0.00 0.00 73 1020.5
20260831013553 27 0 0.0 1.6 0.00 0.00 0.00 73 1020.5
20260831013115 27 0 0.0 3.2 0.00 0.00 0.00 72 1020.4
20260831012551 27 0 0.0 3.2 0.00 0.00 0.00 72 1020.3
20260831012057 28 360 0.0 1.6 0.00 0.00 0.00 71 1020.2
20260831011605 28 0 0.0 0.0 0.00 0.00 0.00 71 1020.2
20260831011052 28 0 0.0 0.0 0.00 0.00 0.00 71 1020.1
20260831010552 28 0 0.0 0.0 0.00 0.00 0.00 71 1020.2
20260831010128 28 0 0.0 0.0 0.00 0.00 0.00 70 1020.2
20260831005552 28 0 0.0 0.0 0.00 0.00 0.00 70 1020.0
20260831005049 28 0 0.0 0.0 0.00 0.00 0.00 70 1020.1
20260831004611 28 0 0.0 3.2 0.00 0.00 0.00 69 1020.1
20260831004058 28 0 0.0 3.2 0.00 0.00 0.00 69 1020.1
20260831003551 29 0 0.0 3.2 0.00 0.00 0.00 69 1020.0
20260831003108 29 0 0.0 1.6 0.00 0.00 0.00 68 1019.9
20260831002549 29 0 0.0 0.0 0.00 0.00 0.00 68 1020.0
20260831002051 29 0 0.0 0.0 0.00 0.00 0.00 68 1019.8
20260831001602 30 0 0.0 0.0 0.00 0.00 0.00 67 1019.9